Weather History for Dickinson, ND

Change the Weather History Date:

Wednesday, February 6, 2013

  Actual Average Record
Temperature  
Mean Temperature 33 °F 18 °F  
Max Temperature 40 °F 29 °F 63 °F (1963)
Min Temperature 25 °F 8 °F -39 °F (1914)
Degree Days  
Heating Degree Days 32 46  
Month to date heating degree days 230 281  
Since 1 July heating degree days 5110 5328  
Cooling Degree Days 0 0  
Month to date cooling degree days 0 0  
Year to date cooling degree days 0 0  
Moisture  
Dew Point 26 °F    
Average Humidity 82    
Maximum Humidity 100    
Minimum Humidity 64    
Precipitation  
Precipitation 0.00 in 0.01 in 0.13 in (1978)
Month to date precipitation T 0.05  
Year to date precipitation 0.08 0.35  
Sea Level Pressure  
Sea Level Pressure 29.88 in    
Wind  
Wind Speed 11 mph (NE)    
Max Wind Speed 20 mph    
Max Gust Speed 24 mph    
Visibility 6 miles    
Events Fog    
T = Trace of Precipitation, MM = Missing Value Source: NWS Daily Summary

Daily Weather History Graph

Daily Weather History Graph

Search for Another Location

Airport:

Trip Planner

Search our weather history database for the weather conditions in past years. The results will help you decide how hot, cold, wet, or windy it might be!

Date:

Astronomy

Feb. 06, 2013 Rise Set
Actual Time 7:08 AM MST 5:02 PM MST
Civil Twilight 6:36 AM MST 5:34 PM MST
Nautical Twilight 6:00 AM MST 6:10 PM MST
Astronomical Twilight 5:25 AM MST 6:46 PM MST
Moon 4:01 AM MST (2/6) 1:16 PM MST (2/6)
Length of Visible Light 10h 58m
Length of Day
9h 54m
Waning Crescent, 16% of the Moon is Illuminated
Feb 6
Waning Crescent
Feb 10
New
Feb 17
First Quarter
Feb 25
Full
Mar 4
Last Quarter

Hourly Weather History & Observations

Time (MST) Temp. Windchill Dew Point Humidity Pressure Visibility Wind Dir Wind Speed Gust Speed Precip Events Conditions
12:56 AM 30.0 °F 19.5 °F 25.0 °F 82% 29.76 in 10.0 mi South 13.8 mph - N/A   Overcast
1:56 AM 28.0 °F 17.5 °F 24.1 °F 85% 29.74 in 10.0 mi South 12.7 mph - N/A   Scattered Clouds
3:56 AM 28.0 °F 22.8 °F 23.0 °F 81% 29.72 in 10.0 mi SSW 4.6 mph - N/A   Mostly Cloudy
4:56 AM 30.9 °F 24.3 °F 24.1 °F 76% 29.72 in 10.0 mi SW 6.9 mph - N/A   Clear
6:56 AM 32.0 °F 22.1 °F 25.0 °F 75% 29.74 in 10.0 mi West 13.8 mph - N/A   Clear
7:56 AM 33.1 °F 23.0 °F 25.0 °F 72% 29.77 in 10.0 mi West 15.0 mph - N/A   Clear
8:56 AM 36.0 °F 27.1 °F 27.0 °F 70% 29.78 in 10.0 mi West 13.8 mph - N/A   Clear
9:56 AM 37.9 °F 29.2 °F 28.0 °F 68% 29.80 in 10.0 mi West 15.0 mph - N/A   Clear
10:56 AM 39.0 °F 30.3 °F 28.9 °F 67% 29.80 in 10.0 mi West 16.1 mph - N/A   Clear
11:56 AM 39.9 °F 32.1 °F 28.9 °F 65% 29.80 in 10.0 mi WNW 13.8 mph - N/A   Clear
12:56 PM 39.9 °F 31.1 °F 28.9 °F 65% 29.81 in 10.0 mi WNW 17.3 mph - N/A   Clear
1:56 PM 39.0 °F 30.6 °F 30.0 °F 70% 29.84 in 10.0 mi NW 15.0 mph - N/A   Clear
2:56 PM 39.0 °F 31.0 °F 30.0 °F 70% 29.86 in 10.0 mi WNW 13.8 mph - N/A   Clear
3:56 PM 37.0 °F 28.9 °F 30.0 °F 76% 29.89 in 10.0 mi WNW 12.7 mph - N/A   Clear
4:56 PM 34.0 °F 29.8 °F 28.0 °F 79% 29.93 in 10.0 mi North 4.6 mph - N/A   Clear
5:56 PM 33.1 °F 26.1 °F 27.0 °F 78% 29.94 in 10.0 mi North 8.1 mph - N/A   Clear
6:56 PM 28.9 °F 21.9 °F 25.0 °F 85% 29.99 in 10.0 mi NE 6.9 mph - N/A   Clear
7:24 PM 24.8 °F 17.9 °F 23.0 °F 93% 29.91 in 4.0 mi ENE 5.8 mph - N/A   Scattered Clouds
7:29 PM 26.6 °F 20.0 °F 24.8 °F 93% 29.91 in 2.5 mi East 5.8 mph - N/A   Mostly Cloudy
7:33 PM 26.6 °F 17.5 °F 24.8 °F 93% 29.91 in 0.8 mi East 9.2 mph - N/A   Mist
7:43 PM 26.6 °F 19.1 °F 24.8 °F 93% 29.91 in 0.2 mi ENE 6.9 mph - N/A Fog Light Freezing Fog
7:56 PM 26.1 °F 17.6 °F 24.1 °F 92% 30.00 in 0.2 mi East 8.1 mph - N/A Fog Light Freezing Fog
8:56 PM 27.0 °F 19.5 °F 26.1 °F 96% 30.02 in 0.2 mi East 6.9 mph - N/A Fog Light Freezing Fog
9:21 PM 26.6 °F 21.2 °F 26.6 °F 100% 29.95 in 0.2 mi East 4.6 mph - N/A Fog Light Freezing Fog
9:49 PM 26.6 °F 19.1 °F 26.6 °F 100% 29.96 in 0.2 mi ESE 6.9 mph - N/A Fog Light Freezing Fog
9:56 PM 27.0 °F 19.5 °F 26.1 °F 96% 30.03 in 0.2 mi East 6.9 mph - N/A Fog Light Freezing Fog
10:39 PM 26.6 °F 21.2 °F 26.6 °F 100% 29.96 in 0.2 mi ESE 4.6 mph - N/A Fog Light Freezing Fog
10:56 PM 27.0 °F 21.6 °F 26.1 °F 96% 30.04 in 0.2 mi SE 4.6 mph - N/A Fog Light Freezing Fog
11:56 PM 27.0 °F 19.5 °F 26.1 °F 96% 30.05 in 0.2 mi ESE 6.9 mph - N/A Fog Light Freezing Fog